Flag for Germany Weather past 2 weeks in Hamm, North Rhine-Westphalia, Germany

Now
86 °F

Passing clouds.


Feels Like: 85 °F
Forecast: 72 / 89 °F
Wind: 8 mph from Southeast

Location: Dortmund / Wickede

Current Time: Jul 2, 2015 at 10:26:44 AM

Latest Report: Jul 2, 2015 at 9:50 AM


Visibility: N/A

Pressure: 30.07 "Hg

Humidity: 35%

Dew point: 55 °F

Location of HammLocation

Historic Weather in Hamm — Graph

°F

Hamm temperature yesterday

Maximum temperature yesterday: 91 °F (at 4:50 PM)
Minimum temperature yesterday: 57 °F (at 5:50 AM)
Average temperature yesterday: 81 °F

Past Weeks' High & Low Weather Summary

 TemperatureHumidityPressure
High91 °F (Jul 1, 4:50 PM)94% (Jun 20, 6:20 AM)30.27 "Hg (Jun 20, 6:20 AM)
Low48 °F (Jun 20, 6:20 AM)24% (Jul 1, 4:20 PM)29.68 "Hg (Jun 22, 7:50 PM)
Average63 °F62%30.05 "Hg
* Reported Jun 17 9:20 AM — Jul 2 9:20 AM, Hamm, Weather by CustomWeather, © 2015

Note: Actual official high and low records may vary slightly from our data, if they occured in-between our weather recording intervals... More about our weather records

Advertising

Hamm weather history for previous 24 hours

 ConditionsComfort  
Time TempWeatherWind HumidityBarometerVisibility
9:20 AM
Thu, Jul 2
84 °FPassing clouds.6 mph37%30.07 "HgN/A
8:50 AM82 °FPassing clouds.5 mph42%30.07 "HgN/A
8:20 AM81 °FPassing clouds.5 mph42%30.07 "HgN/A
7:50 AM79 °FPassing clouds.5 mph45%30.07 "HgN/A
7:20 AM77 °FSunny.3 mph44%30.07 "Hg10 mi
6:50 AM68 °FSunny.3 mph73%30.07 "Hg10 mi
6:20 AM72 °FSunny.5 mph61%30.07 "Hg10 mi
5:20 AM64 °FClear.2 mph68%30.07 "Hg10 mi
10:50 PM
Wed, Jul 1
79 °FClear.5 mph42%30.07 "Hg10 mi
10:20 PM81 °FSunny.5 mph42%30.04 "Hg10 mi
9:50 PM82 °FSunny.6 mph37%30.04 "Hg10 mi
9:20 PM84 °FSunny.6 mph35%30.04 "Hg10 mi
8:50 PM86 °FSunny.6 mph35%30.04 "Hg10 mi
8:20 PM86 °FSunny.6 mph35%30.04 "Hg10 mi
7:50 PM88 °FSunny.8 mph31%30.04 "Hg10 mi
7:20 PM90 °FPassing clouds.8 mph27%30.01 "HgN/A
6:50 PM90 °FPassing clouds.7 mph26%30.04 "HgN/A
6:20 PM90 °FPassing clouds.6 mph24%30.04 "HgN/A
5:50 PM90 °FSunny.9 mph24%30.04 "Hg10 mi
5:20 PM91 °FPassing clouds.8 mph24%30.04 "HgN/A
4:50 PM91 °FPassing clouds.8 mph24%30.04 "HgN/A
4:20 PM90 °FPassing clouds.7 mph24%30.04 "HgN/A
3:50 PM90 °FPassing clouds.8 mph26%30.04 "HgN/A
3:20 PM90 °FPassing clouds.10 mph26%30.07 "HgN/A
2:50 PM88 °FSunny.9 mph29%30.07 "Hg10 mi
2:20 PM86 °FSunny.10 mph33%30.07 "Hg10 mi
1:50 PM86 °FPassing clouds.12 mph35%30.07 "HgN/A
1:20 PM86 °FPassing clouds.8 mph35%30.09 "HgN/A
12:50 PM84 °FPassing clouds.8 mph40%30.09 "HgN/A
12:20 PM84 °FPassing clouds.7 mph40%30.09 "HgN/A
11:50 AM84 °FSunny.8 mph31%30.09 "Hg10 mi
11:20 AM82 °FPassing clouds.8 mph30%30.09 "HgN/A
10:50 AM82 °FPassing clouds.7 mph32%30.09 "HgN/A
10:20 AM81 °FSunny.6 mph37%30.09 "Hg10 mi
Weather by CustomWeather, © 2015

See weather overviewHow to use our weather pages